FIREFLY-2

导读

FIREFLY-2(萤火虫2号)是萤火虫卫星系列的遥感卫星,于北京时间2025年1月14日由猎鹰9号v1.2火箭从范登堡SLC-4E发射基地发射升空,进入太阳同步轨道。该卫星质量约60千克,国际卫星标识符为2025-009CZ,NORAD编号62704,主要承担对地遥感观测任务,属于低轨小型卫星,将为相关领域遥感数据获取提供支持。

基本信息
目录编号:
62704
目录名称:
FIREFLY-2
国际标识:
2025-009CZ
轨道中心:
EARTH
卫星名称:
FIREFLY-2
卫星全名:
FIREFLY-2
卫星状态:
在轨 (已飞行598 天)
发射日期:
2025-01-14 UTC
国别 :
印度 (IN)
星等 :
--
轨道信息
数据来源 国际轨道数据
星历时间: 2026-09-04T23:18:14+0800
8小时前
查看轨道信息
半长轴: 6967.696km
偏心率: 0.0007115
轨道倾角: 97.697°
近地点辐角 160.891°
升交点赤经 323.841°
平近点角 199.257°
近地点: 584.601km
远地点: 594.517km
周期: 96.470分钟
每日圈数: 14.92688
详细信息
使用方式:
暂无
2D轨道图
3D轨道图
轨道高度分析图
轨道倾角分析图
轨道综合分析图
查看轨道综合分析图
交会数据列表
事件ID 空间交会对象 最接近时刻(TCA) 交会距离 交会风险概率(CRP) 交会风险指数(CRI) 操作
CDM_260907-055906-270406-988021
OBJECT M (69880)
2026-09-07T
05:59:47+0000
0.273 km
中距离
5.800283E-4 高风险 0.9
CDM_260906-023806-270406-990223
CUBY-1 (69902)
2026-09-06T
02:38:45+0000
0.845 km
远距离
4.824144E-5 中风险 0.69
CDM_260907-011006-270406-991021
2026-09-07T
01:10:08+0000
1.054 km
极远距离
2.282673E-5 中风险 0.62
CDM_260905-183606-270406-990322
BALKAN-3 (69903)
2026-09-05T
18:36:04+0000
2.644 km
极远距离
1.607477E-6 低风险 0.39
CDM_260903-060403-931006-270422
2026-09-03T
06:04:33+0000
2.899 km
极远距离
6.388651E-7 极低风险 0.31